TimeCST,TemperatureF,Dew PointF,Humidity,Sea Level PressureIn,VisibilityMPH,Wind Direction,Wind SpeedMPH,Gust SpeedMPH,PrecipitationIn,Events,Conditions,WindDirDegrees,DateUTC
12:15 AM,35.2,28.4,76,30.31,7.0,NNW,10.4,-,N/A,,Scattered Clouds,340,2012-11-27 06:15:00
12:35 AM,34.5,28.2,78,30.31,7.0,NNW,10.4,-,N/A,,Clear,340,2012-11-27 06:35:00
12:55 AM,34.2,27.9,78,30.31,7.0,NNW,11.5,-,N/A,,Clear,340,2012-11-27 06:55:00
1:15 AM,34.0,27.5,77,30.31,7.0,NNW,16.1,-,N/A,,Clear,340,2012-11-27 07:15:00
1:55 AM,32.5,27.5,82,30.33,7.0,NNW,9.2,-,N/A,,Clear,340,2012-11-27 07:55:00
2:15 AM,32.2,27.9,84,30.33,7.0,NNW,10.4,-,N/A,,Clear,330,2012-11-27 08:15:00
2:37 AM,32.0,28.4,87,30.33,7.0,NNW,9.2,-,N/A,,Clear,330,2012-11-27 08:37:00
2:57 AM,32.0,28.4,87,30.33,10.0,NNW,9.2,-,N/A,,Clear,330,2012-11-27 08:57:00
3:22 AM,32.0,28.4,87,30.32,7.0,NNW,10.4,-,N/A,,Clear,340,2012-11-27 09:22:00
3:38 AM,30.2,28.4,93,30.32,7.0,NNW,9.2,-,N/A,,Clear,340,2012-11-27 09:38:00
3:58 AM,30.2,28.4,93,30.32,7.0,NNW,9.2,-,N/A,,Clear,340,2012-11-27 09:58:00
4:15 AM,31.3,28.4,89,30.32,7.0,NNW,8.1,-,N/A,,Clear,340,2012-11-27 10:15:00
4:18 AM,30.2,28.4,93,30.32,7.0,NNW,9.2,-,N/A,,Clear,340,2012-11-27 10:18:00
4:35 AM,30.9,28.0,89,30.33,7.0,NNW,8.1,-,N/A,,Clear,340,2012-11-27 10:35:00
4:55 AM,30.2,27.9,91,30.33,7.0,NNW,8.1,-,N/A,,Clear,330,2012-11-27 10:55:00
5:15 AM,30.2,27.7,90,30.33,7.0,NNW,5.8,-,N/A,,Clear,330,2012-11-27 11:15:00
5:35 AM,29.5,27.3,92,30.34,7.0,Calm,Calm,-,N/A,,Clear,0,2012-11-27 11:35:00
5:55 AM,28.0,26.2,93,30.35,7.0,NW,5.8,-,N/A,,Clear,310,2012-11-27 11:55:00
6:15 AM,28.0,26.6,94,30.35,5.0,NW,5.8,-,N/A,,Clear,320,2012-11-27 12:15:00
6:35 AM,27.9,26.6,95,30.36,5.0,NW,8.1,-,N/A,,Clear,310,2012-11-27 12:35:00
6:55 AM,28.6,27.3,95,30.38,5.0,NW,8.1,-,N/A,,Clear,320,2012-11-27 12:55:00
7:15 AM,29.1,27.5,94,30.38,5.0,NW,5.8,-,N/A,,Clear,320,2012-11-27 13:15:00
7:35 AM,30.0,28.2,93,30.38,4.0,NW,10.4,-,N/A,,Clear,320,2012-11-27 13:35:00
7:55 AM,31.1,28.6,90,30.39,10.0,NNW,10.4,-,N/A,,Clear,340,2012-11-27 13:55:00
8:15 AM,32.0,28.8,88,30.40,7.0,NNW,10.4,-,N/A,,Clear,340,2012-11-27 14:15:00
8:35 AM,32.9,28.8,85,30.40,7.0,North,9.2,-,N/A,,Clear,350,2012-11-27 14:35:00
8:55 AM,33.8,28.8,82,30.41,7.0,North,8.1,-,N/A,,Clear,350,2012-11-27 14:55:00
9:15 AM,34.7,28.6,78,30.41,7.0,North,9.2,-,N/A,,Clear,350,2012-11-27 15:15:00
9:35 AM,35.6,28.2,75,30.41,7.0,North,8.1,-,N/A,,Clear,10,2012-11-27 15:35:00
9:55 AM,37.2,28.9,72,30.41,7.0,North,9.2,-,N/A,,Clear,350,2012-11-27 15:55:00
10:15 AM,38.3,28.9,69,30.41,7.0,NNE,8.1,-,N/A,,Clear,20,2012-11-27 16:15:00
10:35 AM,38.8,29.3,69,30.41,7.0,North,10.4,-,N/A,,Clear,10,2012-11-27 16:35:00
10:55 AM,39.7,29.3,66,30.40,7.0,North,6.9,-,N/A,,Clear,360,2012-11-27 16:55:00
11:15 AM,40.6,28.9,63,30.40,7.0,NNE,6.9,-,N/A,,Clear,20,2012-11-27 17:15:00
11:35 AM,41.2,29.3,63,30.38,7.0,NNE,10.4,-,N/A,,Clear,20,2012-11-27 17:35:00
11:55 AM,41.7,29.1,61,30.38,7.0,North,9.2,-,N/A,,Clear,350,2012-11-27 17:55:00
12:15 PM,42.3,29.1,60,30.37,7.0,North,10.4,-,N/A,,Clear,350,2012-11-27 18:15:00
12:35 PM,42.8,29.3,59,30.36,7.0,NNW,9.2,16.1,N/A,,Clear,330,2012-11-27 18:35:00
12:55 PM,42.8,29.1,58,30.35,10.0,NNW,6.9,-,N/A,,Clear,330,2012-11-27 18:55:00
1:15 PM,43.3,28.6,56,30.35,7.0,North,8.1,-,N/A,,Clear,360,2012-11-27 19:15:00
1:35 PM,43.3,28.8,56,30.34,7.0,North,4.6,-,N/A,,Clear,360,2012-11-27 19:35:00
1:55 PM,43.3,28.9,57,30.34,7.0,NNW,9.2,-,N/A,,Clear,330,2012-11-27 19:55:00
2:15 PM,43.0,27.1,54,30.34,7.0,NW,3.5,-,N/A,,Clear,310,2012-11-27 20:15:00
2:35 PM,43.2,27.9,55,30.33,10.0,North,6.9,-,N/A,,Clear,350,2012-11-27 20:35:00
2:55 PM,43.0,28.2,56,30.33,7.0,NW,8.1,-,N/A,,Clear,320,2012-11-27 20:55:00
3:15 PM,42.6,27.7,56,30.33,7.0,North,5.8,-,N/A,,Clear,360,2012-11-27 21:15:00
3:55 PM,41.7,28.0,58,30.34,7.0,North,4.6,-,N/A,,Clear,350,2012-11-27 21:55:00
4:15 PM,39.9,28.6,64,30.34,7.0,North,3.5,-,N/A,,Clear,360,2012-11-27 22:15:00
4:35 PM,38.7,27.5,64,30.35,7.0,North,3.5,-,N/A,,Clear,360,2012-11-27 22:35:00
4:55 PM,38.7,26.6,62,30.35,10.0,Calm,Calm,-,N/A,,Clear,0,2012-11-27 22:55:00
5:15 PM,36.9,27.1,68,30.35,10.0,Calm,Calm,-,N/A,,Clear,0,2012-11-27 23:15:00
5:35 PM,36.0,26.8,69,30.35,10.0,Calm,Calm,-,N/A,,Clear,0,2012-11-27 23:35:00
5:55 PM,33.8,27.3,77,30.35,10.0,Calm,Calm,-,N/A,,Clear,0,2012-11-27 23:55:00
6:15 PM,32.0,27.1,82,30.35,10.0,Calm,Calm,-,N/A,,Clear,0,2012-11-28 00:15:00
6:35 PM,30.9,27.7,88,30.35,10.0,SW,4.6,-,N/A,,Clear,230,2012-11-28 00:35:00
6:55 PM,30.2,26.8,87,30.35,10.0,WSW,3.5,-,N/A,,Clear,240,2012-11-28 00:55:00
7:15 PM,30.6,27.3,88,30.35,10.0,Calm,Calm,-,N/A,,Clear,0,2012-11-28 01:15:00
7:35 PM,30.6,27.1,87,30.35,10.0,Calm,Calm,-,N/A,,Clear,0,2012-11-28 01:35:00
7:55 PM,29.3,26.6,90,30.35,10.0,Calm,Calm,-,N/A,,Clear,0,2012-11-28 01:55:00
8:15 PM,29.1,25.9,88,30.36,7.0,Calm,Calm,-,N/A,,Clear,0,2012-11-28 02:15:00
8:35 PM,28.4,25.9,90,30.35,7.0,Calm,Calm,-,N/A,,Clear,0,2012-11-28 02:35:00
8:55 PM,28.4,27.3,96,30.36,5.0,Calm,Calm,-,N/A,,Clear,0,2012-11-28 02:55:00
9:15 PM,28.6,26.8,93,30.36,7.0,Calm,Calm,-,N/A,,Clear,0,2012-11-28 03:15:00
9:35 PM,28.2,26.6,94,30.36,7.0,Calm,Calm,-,N/A,,Clear,0,2012-11-28 03:35:00
9:55 PM,28.0,25.7,91,30.36,7.0,Calm,Calm,-,N/A,,Clear,0,2012-11-28 03:55:00
10:15 PM,27.7,25.9,93,30.36,7.0,Calm,Calm,-,N/A,,Clear,0,2012-11-28 04:15:00
10:35 PM,28.2,26.8,94,30.35,7.0,Calm,Calm,-,N/A,,Clear,0,2012-11-28 04:35:00
10:55 PM,28.0,27.0,96,30.35,5.0,Calm,Calm,-,N/A,,Clear,0,2012-11-28 04:55:00
11:15 PM,27.5,26.1,94,30.36,7.0,Calm,Calm,-,N/A,,Clear,0,2012-11-28 05:15:00
11:35 PM,27.1,25.7,94,30.36,7.0,Calm,Calm,-,N/A,,Clear,0,2012-11-28 05:35:00
11:55 PM,27.0,25.7,95,30.36,7.0,Calm,Calm,-,N/A,,Clear,0,2012-11-28 05:55:00